User: anonymous   Login
Location: Zagreb
(45.8000°N, 16.0000°E)
Time: 00:28:14
(UTC+01:00)
Language:

KKS-1 - Orbit

View from above orbital plane
View from above orbital plane
View from above satellite
View from above satellite

Ground track
Ground track

The orbit data is extracted from the following two-line orbital elements,

1 33499U 09002H   20304.87097643  .00000138  00000-0  28200-4 0  9990
2 33499  98.2975 163.2787 0010197  57.4351 302.7840 14.75572347632984
Epoch (UTC): 30 October 2020 20:54:12
Eccentricity: 0.0010197
inclination: 98.2975°
perigee height: 636 km
apogee height: 650 km
right ascension of ascending node: 163.2787°
argument of perigee: 57.4351°
revolutions per day: 14.75572347
mean anomaly at epoch: 302.7840°
orbit number at epoch: 63298

The dashed part of the orbit path shows where the satellite is in the earth's shadow,  

DLR